Location: ????????
(60.4333°N, 46.4710°E)
Time: 19:37:18
(UTC+00:00)

Cosmos 2208 Rocket - Pass Details

Date: 25 November 2020
Orbit: 754 x 806 km, 74.0° (Epoch: 16 January)

Event Time Altitude Azimuth Distance (km) Brightness Sun altitude
Rises 14:59:41 0° 225° (SW) 3,248 8.1 -20.3°
Reaches altitude 10° 15:02:04 10° 228° (SW) 2,332 7.3 -20.6°
Maximum altitude 15:07:20 62° 310° (NW) 889 4.4 -21.3°
Enters shadow 15:10:39 23° 24° (NNE) 1,628 5.4 -21.7°
